Location: Unspecified
(40.9447°N, 78.9903°W)
Time: 12:00:33
(UTC-04:00)

Hubble Space Telescope - Pass Details

Date: 22 January 2019
Orbit: 536 x 540 km, 28.5° (Epoch: 20 October)

Event Time Altitude Azimuth Distance (km) Brightness Sun altitude
Exits shadow 04:58:05 12° 154° (SSE) 1,648 3.5 -29.4°
Drops below altitude 10° 04:58:52 10° 144° (SE) 1,792 3.8 -29.3°
Sets 05:01:57 0° 120° (ESE) 2,675 5.2 -28.7°
